This demonstration page uses our WeatherBlox Daily Observations layout. Learn more.

Left ArrowRight Arrow

41.86663, -103.66717

Hourly Observations for September 4, 2021

Temp ( °F °C ) Dew Point ( °F °C ) Humidity (%) Winds ( mph kmh ) Pressure ( in mb ) Visibility ( mi km ) Precip ( " mm )
12:53 am 00:53 Clear 58 14.4 54 12.2 87 87 Calm 30.00 1016 10 16 0.00 0.00
1:53 am 01:53 Clear 56 13.3 53 11.7 90 90 NNW 7 11 30.02 1017 10 16 0.00 0.00
2:53 am 02:53 Mostly Cloudy 57 13.9 53 11.7 87 87 N 5 7 30.02 1017 10 16 0.00 0.00
3:53 am 03:53 Clear 56 13.3 52 11.1 87 87 N 7 11 30.02 1017 10 16 0.00 0.00
4:53 am 04:53 Clear 55 12.8 51 10.6 87 87 S 3 6 30.03 1017 10 16 0.00 0.00
5:53 am 05:53 Clear 51 10.6 49 9.4 92 92 Calm 30.05 1018 7 11 0.00 0.00
6:11 am 06:11 Partly Cloudy 53 11.7 50 10 89 89 Calm 30.06 1018 8 13 0.00 0.00
6:19 am 06:19 Mostly Cloudy 54 12.2 51 10.6 90 90 WNW 5 7 30.05 1018 8 13 0.00 0.00
6:53 am 06:53 Cloudy 55 12.8 52 11.1 90 90 NW 5 7 30.05 1018 7 11 0.00 0.00
7:11 am 07:11 Cloudy with Mist and Fog 56 13.3 53 11.7 90 90 WNW 8 13 30.05 1017 3 5 0.00 0.00
7:16 am 07:16 Cloudy with Mist and Fog 56 13.3 53 11.7 90 90 WNW 7 11 30.06 1018 2 3 0.00 0.00
7:22 am 07:22 Cloudy with Fog 55 12.8 53 11.7 93 93 WNW 8 13 30.06 1018 0 0 0.00 0.00
7:53 am 07:53 Mostly Cloudy with Fog 56 13.3 54 12.2 93 93 NW 5 7 30.07 1018 0 0 0.00 0.00
8:51 am 08:51 Mostly Cloudy with Mist and Fog 55 13 54 12 94 94 WNW 5 7 30.07 1018 1 1 0.00 0.00
8:53 am 08:53 Cloudy with Mist and Fog 56 13.3 54 12.2 93 93 VRB 6 9 30.09 1019 1 1 0.00 0.00
9:12 am 09:12 Cloudy with Mist and Fog 57 13.9 55 12.8 93 93 NW 5 7 30.06 1018 1 2 0.00 0.00
9:19 am 09:19 Cloudy with Mist and Fog 57 13.9 55 12.8 93 93 VRB 5 7 30.06 1018 3 5 0.00 0.00
9:53 am 09:53 Cloudy 59 15 55 12.8 87 87 Calm 30.09 1019 8 13 0.00 0.00
10:10 am 10:10 Mostly Cloudy 63 17.2 56 13.3 78 78 NNE 3 6 30.02 1017 9 14 0.00 0.00
10:20 am 10:20 Partly Cloudy 63 17 55 13 77 77 N 3 6 30.02 1017 10 16 0.00 0.00
10:53 am 10:53 Sunny 67 19.4 57 13.9 71 71 Calm 30.06 1018 10 16 0.00 0.00
11:53 am 11:53 Sunny 69 20.6 57 13.9 66 66 VRB 3 6 30.04 1017 10 16 0.00 0.00
12:53 pm 12:53 Sunny 73 22.8 57 13.9 57 57 ESE 6 9 30.03 1017 10 16 0.00 0.00
1:53 pm 13:53 Sunny 76 24.4 55 12.8 48 48 Calm 30.01 1016 10 16 0.00 0.00
2:53 pm 14:53 Sunny 80 26.7 54 12.2 41 41 NE 7 11 29.97 1015 10 16 0.00 0.00
3:53 pm 15:53 Sunny 80 26.7 51 10.6 37 37 ESE 3 6 29.94 1014 10 16 0.00 0.00
4:53 pm 16:53 Sunny 80 26.7 48 8.9 33 33 SE 5 7 29.93 1014 10 16 0.00 0.00
5:53 pm 17:53 Sunny 79 26.1 49 9.4 35 35 SE 8 13 29.93 1014 10 16 0.00 0.00
6:53 pm 18:53 Sunny 72 22.2 55 12.8 55 55 ENE 7 11 29.95 1014 10 16 0.00 0.00
7:53 pm 19:53 Clear 68 20 53 11.7 59 59 NE 9 15 29.98 1015 10 16 0.00 0.00
8:53 pm 20:53 Clear 65 18.3 55 12.8 70 70 NE 8 13 30.00 1016 10 16 0.00 0.00
9:53 pm 21:53 Clear 64 17.8 56 13.3 75 75 NE 6 9 30.00 1016 10 16 0.00 0.00
10:53 pm 22:53 Clear 63 17.2 56 13.3 78 78 Calm 29.99 1016 10 16 0.00 0.00
11:53 pm 23:53 Clear 60 15.6 55 12.8 84 84 N 5 7 29.99 1016 10 16 0.00 0.00

Powered by AerisWeather